Content
SEND FEEDBACK

Daily
Averages
Monthly
Summary
French Polynesia

FAAA, FRENCH POLYNESIA


Home > Oceania > French Polynesia
Elevation: 7 feet     Latitude: 17 33S     Longitude: 149 37W

WEATHER
 
SELECT A DAY
Number of Records: 214,666;   Date Range: 6/30/96 - 10/29/14
 
SHARE

PRINT THIS DATA

[ ← Previous Day ]
WEATHER ALMANAC - APRIL 10, 2013
[ Next Day → ]
[ °C ]   °F
Weather ElementAverageHighLow
Temperature81.8 °F87.8 °F (11:30 am)76 °F (5:00 am)
Dewpoint72.8 °F75.2 °F (8:00 am)71 °F (5:00 am)
Humidity73.9 %83 % (12:30 am)55 % (2:00 pm)
Barometer29.89 in29.93 in (8:00 am)29.83 in (3:30 am)
Wind Speed3.6 mph8.9 mph (2:00 am)
Weather ElementAverage
Visibility7.5 mi
Wind DirectionSE (134.1 °)

Weather ElementTotal
Precipitation---
Cooling Degree Days16.9 (Base 65)
Growing Degree Days31.9 (Base 50)
Averaged from 54 records on April 10, 2013
WEATHER CONDITIONS BREAKOUT
WIND DIRECTION BREAKOUT
WEATHER BY HOUR - APRIL 10, 2013
[ °C ]   °F
Local TimeTemperatureDewpointHumidityBarometerVisibilityWind DirectionWind SpeedGust SpeedPrecipitationEventsConditions
12:30 AM78.8 °F73.4 °F83 %29.89 in6.2 miVariable3.5 mphRainLight Rain Showers
1:00 AM78.8 °F73.4 °F83 %29.86 in6.2 miCalmScattered Clouds
1:30 AM77.0 °F71.6 °F83 %29.86 in6.2 miESE (120°)4.6 mphScattered Clouds
2:00 AM77.0 °F72.0 °F81 %29.87 in12.0 miENE (70°)8.9 mphPartly Cloudy
2:00 AM77.0 °F71.6 °F83 %29.86 in6.2 miENE (70°)4.6 mphScattered Clouds
2:30 AM77.0 °F71.6 °F83 %29.86 in6.2 miENE (70°)3.5 mphPartly Cloudy
3:00 AM77.0 °F71.6 °F83 %29.86 in6.2 miCalmPartly Cloudy
3:30 AM77.0 °F71.6 °F83 %29.83 in6.2 miVariable3.5 mphPartly Cloudy
4:00 AM77.0 °F71.6 °F83 %29.86 in6.2 miENE (70°)4.6 mphPartly Cloudy
4:30 AM77.0 °F71.6 °F83 %29.86 in6.2 miSouth (170°)4.6 mph
5:00 AM76.0 °F71.0 °F80 %29.87 in37.0 miSSE (160°)3.5 mphClear
5:00 AM77.0 °F71.6 °F83 %29.86 in6.2 miSSE (160°)3.5 mphPartly Cloudy
5:30 AM77.0 °F71.6 °F83 %29.86 in6.2 miSSE (150°)3.5 mphPartly Cloudy
6:00 AM77.0 °F71.6 °F83 %29.89 in6.2 miVariable2.3 mphScattered Clouds
6:30 AM78.8 °F71.6 °F78 %29.89 in6.2 miVariable2.3 mphMostly Cloudy
7:00 AM80.6 °F73.4 °F79 %29.89 in6.2 miVariable2.3 mphScattered Clouds
7:30 AM80.6 °F73.4 °F79 %29.92 in6.2 miSouth (190°)3.5 mphThunderstormScattered Clouds
8:00 AM82.0 °F74.0 °F71 %29.93 in16.0 miSouth (190°)4.6 mphThunderstormLight Thunderstorm
8:00 AM82.4 °F75.2 °F79 %29.92 in6.2 miSouth (190°)4.6 mphScattered Clouds
8:30 AM84.2 °F73.4 °F70 %29.92 in6.2 miSSW (210°)6.9 mphScattered Clouds
9:00 AM84.2 °F73.4 °F70 %29.92 in6.2 miSSW (210°)5.8 mphScattered Clouds
9:30 AM86.0 °F73.4 °F66 %29.92 in6.2 miWSW (240°)3.5 mphScattered Clouds
10:00 AM86.0 °F73.4 °F66 %29.92 in6.2 miWest (270°)3.5 mphScattered Clouds
10:30 AM86.0 °F73.4 °F66 %29.92 in6.2 miWSW (250°)5.8 mphThunderstormScattered Clouds
11:00 AM85.0 °F73.0 °F60 %29.93 in12.0 miSW (230°)8.9 mphMostly Cloudy
11:00 AM84.2 °F73.4 °F70 %29.92 in6.2 miSW (230°)4.6 mphMostly Cloudy
11:30 AM87.8 °F71.6 °F58 %29.89 in6.2 miSW (230°)4.6 mphScattered Clouds
12:00 PM86.0 °F71.6 °F62 %29.89 in6.2 miVariable2.3 mphMostly Cloudy
12:30 PM87.8 °F73.4 °F62 %29.86 in6.2 miWSW (250°)4.6 mphMostly Cloudy
1:00 PM86.0 °F73.4 °F66 %29.86 in6.2 miNW (310°)3.5 mphRainLight Rain Showers
1:30 PM86.0 °F73.4 °F66 %29.86 in6.2 miVariable2.3 mphMostly Cloudy
2:00 PM86.0 °F72.0 °F55 %29.86 in12.0 miNW (310°)3.5 mphMostly Cloudy
2:00 PM86.0 °F71.6 °F62 %29.86 in6.2 miNW (310°)3.5 mphMostly Cloudy
2:30 PM86.0 °F73.4 °F66 %29.86 in6.2 miWest (270°)3.5 mphMostly Cloudy
3:00 PM86.0 °F73.4 °F66 %29.83 in6.2 miSSW (210°)4.6 mphMostly Cloudy
3:30 PM84.2 °F73.4 °F70 %29.83 in6.2 miVariable2.3 mphMostly Cloudy
4:00 PM84.2 °F73.4 °F70 %29.86 in6.2 miVariable1.2 mphMostly Cloudy
4:30 PM84.2 °F73.4 °F70 %29.86 in6.2 miNNW (340°)3.5 mphMostly Cloudy
5:00 PM84.0 °F73.0 °F63 %29.87 in16.0 miWest (280°)2.2 mphPartly Cloudy
5:00 PM84.2 °F73.4 °F70 %29.86 in6.2 miVariable1.2 mphMostly Cloudy
5:30 PM84.2 °F73.4 °F70 %29.86 in6.2 miWSW (240°)3.5 mphMostly Cloudy
6:00 PM84.2 °F75.2 °F74 %29.86 in6.2 miWest (270°)3.5 mphMostly Cloudy
6:30 PM82.4 °F73.4 °F74 %29.89 in6.2 miWSW (250°)3.5 mphMostly Cloudy
7:00 PM82.4 °F73.4 °F74 %29.89 in6.2 miSSE (150°)3.5 mphMostly Cloudy
7:30 PM80.6 °F73.4 °F79 %29.89 in6.2 miVariable3.5 mphMostly Cloudy
8:00 PM81.0 °F73.0 °F71 %29.92 in9.0 miSouth (180°)2.2 mphOvercast
8:00 PM80.6 °F73.4 °F79 %29.92 in6.2 miVariable1.2 mphMostly Cloudy
8:30 PM80.6 °F73.4 °F79 %29.92 in6.2 miSSE (150°)3.5 mphMostly Cloudy
9:00 PM80.6 °F73.4 °F79 %29.92 in6.2 miEast (90°)3.5 mphMostly Cloudy
9:30 PM80.6 °F73.4 °F79 %29.92 in6.2 miENE (70°)4.6 mphMostly Cloudy
10:00 PM80.6 °F73.4 °F79 %29.92 in6.2 miVariable3.5 mphMostly Cloudy
10:30 PM80.6 °F73.4 °F79 %29.92 in6.2 miVariable1.2 mphMostly Cloudy
11:06 PM78.8 °F71.6 °F78 %29.92 in6.2 miEast (80°)4.6 mphMostly Cloudy
11:30 PM78.8 °F71.6 °F78 %29.92 in6.2 miVariable2.3 mphMostly Cloudy
Hourly data recorded from NTAA, located miles away from Faaa, French Polynesia







STORIES FROM OUR PARTNERS